Theta_e
346 352 356 353 353 353 352 354 354 355 353 353 352 351 349 348 347 347 346 345 344 344 344 343 344 345 344 344 344 345 345 345 347 350 350 350 351 356 355 352 352 350 353
349 351 356 355 353 352 353 356 356 354 353 352 350 347 346 346 346 345 345 344 344 343 343 343 344 343 343 341 341 342 344 345 346 347 350 350 350 354 354 353 353 351 352
349 351 352 355 353 352 355 356 355 354 351 348 347 346 345 346 345 344 343 343 342 341 340 340 340 339 339 340 344 347 354 355 352 349 350 346 348 353 354 354 353 353 353
349 347 348 354 352 353 356 355 354 351 347 346 345 345 345 343 342 342 343 341 340 339 338 338 338 337 341 350 352 355 355 355 354 352 348 347 346 352 353 353 352 352 352
347 348 348 353 352 355 356 355 352 347 346 345 344 344 343 342 341 342 341 340 338 337 337 336 338 341 345 351 353 353 353 353 352 348 346 348 350 351 352 350 351 351 351
346 346 353 353 354 357 356 353 348 346 345 344 344 343 341 340 341 340 339 339 339 340 341 342 343 344 349 352 352 351 351 350 347 345 346 348 348 352 351 351 350 350 350
343 345 348 353 355 357 355 351 347 345 345 344 343 342 340 340 340 339 337 339 340 339 340 341 343 345 350 351 351 350 350 349 343 344 346 347 348 350 349 349 349 349 350
344 345 346 352 355 356 353 349 346 344 343 344 343 342 339 339 339 337 338 338 339 340 341 341 349 348 349 348 347 347 347 345 342 342 343 345 347 346 346 347 347 347 347
345 343 343 346 352 355 352 348 346 343 343 343 342 342 340 339 338 337 338 339 339 341 342 343 349 349 349 347 346 346 345 345 337 340 342 343 345 345 345 346 345 346 346
344 341 338 343 348 348 348 348 345 343 342 342 342 341 340 340 338 335 335 341 341 342 343 346 348 348 347 346 346 345 344 343 338 339 340 342 344 344 343 342 342 342 341
341 338 338 342 349 345 344 344 345 343 342 341 340 341 336 331 329 327 338 341 342 339 344 347 348 346 345 344 344 344 340 336 338 338 341 343 343 342 342 340 338 338 337
337 337 337 342 347 343 346 340 336 336 335 335 336 337 333 331 333 332 334 338 338 337 341 346 346 342 336 334 337 337 335 336 338 338 340 341 340 340 338 337 337 337 336
337 339 336 341 345 341 339 336 334 333 332 331 333 334 332 332 331 328 325 325 327 331 321 323 326 329 330 332 332 333 333 334 335 337 337 337 336 336 335 333 332 332 332
336 337 336 342 343 339 337 335 333 332 331 328 328 329 331 329 327 327 324 325 326 327 320 319 320 325 329 330 331 331 331 333 333 333 334 334 333 331 331 330 330 329 328
334 335 335 340 341 340 335 335 332 331 331 329 330 329 329 327 326 326 325 323 325 326 322 320 320 323 327 329 330 331 331 331 331 329 330 332 330 330 329 329 328 327 326
335 334 333 337 341 339 335 333 330 330 331 332 329 329 329 326 324 323 323 323 322 324 323 319 319 322 324 327 328 329 329 329 328 327 327 329 330 329 329 328 327 327 326
336 335 332 334 339 337 335 333 330 330 332 329 328 330 328 326 325 325 322 321 321 321 322 319 319 319 320 321 324 327 328 327 327 326 326 325 329 329 329 328 327 327 327
336 334 333 334 336 336 334 332 331 331 330 327 327 329 329 327 326 323 319 319 321 322 322 320 320 318 318 320 320 323 325 325 325 325 324 324 323 324 328 328 327 327 326
334 334 333 333 333 334 333 331 331 329 327 326 328 328 328 326 324 319 318 318 321 321 319 320 319 320 317 316 318 319 322 323 323 323 323 322 321 323 322 328 328 327 326
333 333 333 334 333 331 329 328 328 328 326 328 329 329 327 326 323 318 318 319 324 320 319 318 318 317 317 317 317 317 318 320 322 322 322 322 319 320 320 321 325 325 326
334 334 333 331 329 330 329 326 326 325 326 327 327 329 326 323 322 320 318 321 321 320 317 317 316 315 315 315 316 315 317 317 319 321 322 320 319 319 318 318 319 320 322
333 333 332 330 329 330 330 329 327 327 328 328 325 323 323 321 321 319 321 321 318 316 317 317 317 315 315 313 312 312 310 314 317 318 318 319 318 318 317 317 318 319 320
332 334 332 330 329 329 328 327 326 326 326 325 323 322 321 321 321 322 322 321 316 314 313 316 315 315 314 312 311 312 308 309 312 314 318 317 319 316 316 317 317 318 319
331 334 333 332 330 329 329 328 327 327 324 328 325 324 322 322 322 322 321 321 317 315 316 314 315 314 312 311 311 311 313 313 308 306 312 316 317 316 316 315 316 317 318
333 333 333 332 330 329 329 328 327 328 326 322 321 322 322 321 321 321 321 321 317 315 315 315 315 313 312 312 310 309 310 309 307 305 305 307 311 315 315 314 314 315 316
333 332 333 332 330 329 329 328 327 326 324 321 319 320 320 320 319 320 321 320 318 315 314 314 313 313 314 313 311 310 309 308 307 307 304 305 307 311 312 315 314 313 315
Wind_Speed
5 7 13 14 13 13 12 13 13 13 12 11 12 11 11 12 12 12 12 11 10 9 10 10 10 11 9 9 7 7 6 5 5 6 7 7 8 9 10 11 10 10 12
12 8 15 14 14 13 13 11 12 11 10 10 10 11 10 11 11 11 11 10 10 10 10 10 11 9 8 7 7 7 5 2 4 6 6 7 8 8 10 10 11 10 12
11 9 11 15 15 14 13 12 10 10 10 9 10 10 10 11 11 11 11 10 10 10 10 10 10 8 7 7 5 7 9 11 9 9 9 5 5 8 9 10 11 11 12
11 7 6 15 15 14 12 12 10 9 10 10 9 9 9 10 10 10 11 11 11 10 9 9 9 8 9 7 11 13 14 15 16 13 6 4 5 8 9 10 10 10 12
9 7 7 14 14 14 14 12 11 10 10 9 9 9 9 9 9 10 12 11 11 11 11 11 9 10 9 9 14 15 15 16 16 11 8 7 5 8 11 10 12 11 12
8 6 11 14 13 12 14 12 11 11 10 9 8 8 8 8 9 11 12 12 13 14 14 11 9 9 8 14 14 14 15 15 13 10 8 8 7 9 13 14 13 13 13
8 5 8 14 13 12 12 11 11 11 10 9 8 7 7 8 10 11 12 12 12 12 12 11 9 7 10 14 14 14 15 16 10 10 9 9 9 13 13 13 14 16 15
9 7 6 11 11 12 10 11 10 9 9 8 7 7 7 8 10 11 12 12 13 13 12 10 10 12 14 14 14 14 14 13 9 10 9 8 11 13 14 14 16 17 16
6 5 5 7 9 11 10 10 10 8 7 6 6 7 8 9 10 11 11 12 13 13 10 9 15 14 14 14 13 14 14 14 9 7 8 5 13 14 16 17 18 19 19
5 5 4 5 5 6 6 9 9 7 6 5 4 5 8 10 10 10 8 9 13 15 12 11 14 15 14 14 15 15 14 13 8 7 5 6 15 15 17 17 17 17 18
6 4 4 4 5 5 5 6 9 9 7 5 4 4 6 4 5 6 7 10 13 15 12 13 14 14 14 15 14 13 11 5 6 5 4 17 18 16 19 17 16 17 17
9 6 6 5 7 5 5 4 5 3 2 2 2 2 2 2 2 5 7 9 11 13 13 14 15 14 10 5 5 8 4 6 5 5 5 17 18 17 17 15 17 17 17
9 6 7 7 7 5 3 3 2 2 2 1 2 2 0 1 2 2 2 3 3 8 4 5 5 5 6 5 5 4 5 6 4 4 10 16 16 16 15 14 13 14 14
9 9 8 8 9 7 4 4 4 3 2 1 1 2 1 0 0 2 1 2 2 2 5 4 3 4 6 6 5 6 5 6 4 3 8 13 13 14 14 13 14 13 13
10 10 10 9 10 7 5 3 3 3 3 3 3 2 2 2 1 1 1 2 1 3 3 4 3 4 5 6 4 5 5 5 6 3 3 13 11 14 12 13 13 13 13
8 10 8 9 8 5 4 6 4 4 3 3 2 3 4 3 2 2 3 3 3 3 3 4 3 4 4 4 4 4 5 4 4 4 3 4 10 12 11 12 12 12 12
10 10 10 9 6 6 7 6 4 4 4 3 3 3 4 4 4 2 3 3 3 3 6 5 2 3 3 3 3 3 3 4 3 4 3 2 5 11 10 10 10 10 11
9 12 11 9 8 7 5 4 3 4 3 3 3 3 5 5 4 4 4 3 3 3 3 5 3 2 3 3 3 3 3 3 4 4 3 2 2 2 7 9 8 8 9
9 9 9 8 8 5 5 4 3 4 4 4 3 3 3 4 4 5 4 3 4 4 3 4 3 3 3 3 4 3 3 3 4 3 5 4 4 3 3 9 10 9 8
7 7 7 6 7 7 5 4 3 2 2 2 2 2 3 3 5 4 3 3 2 2 2 3 1 1 2 3 4 4 3 3 3 4 5 5 4 5 4 4 3 4 9
5 8 8 8 7 9 4 4 1 2 2 2 0 1 2 4 5 4 3 3 3 3 3 2 2 2 1 2 3 1 1 3 5 5 4 5 6 6 5 4 3 3 4
6 7 8 7 8 6 4 1 3 3 1 1 1 0 2 4 4 4 4 3 3 3 3 2 2 2 1 2 3 2 2 2 4 6 5 6 8 5 7 7 6 6 5
7 8 9 9 9 7 7 4 3 3 2 0 1 2 2 3 4 4 3 2 3 3 2 2 3 4 3 2 3 3 2 4 0 1 6 7 6 5 6 6 7 8 7
6 6 8 8 8 7 8 4 4 4 3 2 2 2 3 3 3 4 4 3 3 2 2 2 2 2 3 3 1 2 1 2 3 1 2 3 5 7 8 7 7 8 8
5 5 6 8 8 7 8 6 5 4 2 1 1 2 2 3 3 4 4 3 2 2 2 3 3 4 2 2 2 2 1 0 1 2 2 1 2 4 5 6 6 7 7
5 6 5 6 6 9 10 8 7 6 4 3 2 3 3 2 3 4 3 3 2 2 3 3 3 4 3 2 2 3 3 3 3 3 2 3 2 2 2 3 5 5 5
Wind_Direction
147 153 141 132 127 120 115 110 111 107 104 101 98 98 99 94 91 87 84 80 77 74 74 73 71 73 77 76 77 74 66 73 84 95 100 98 89 96 96 84 80 74 69
144 148 143 138 133 127 124 121 108 106 104 100 101 100 96 90 86 82 76 72 70 64 62 67 73 78 80 82 76 71 63 99 137 127 114 114 99 96 98 93 84 78 74
134 139 142 141 137 135 133 125 119 111 103 99 96 90 86 81 78 76 78 75 69 65 60 58 64 65 68 66 76 91 88 82 137 138 117 111 106 108 112 94 88 83 79
125 114 134 142 138 139 133 127 121 109 102 98 91 85 83 77 72 70 71 68 64 62 61 60 61 59 61 62 105 106 92 90 92 93 92 88 102 98 108 105 89 85 82
115 124 155 144 144 143 135 126 116 110 105 102 94 89 75 69 71 73 68 61 56 57 58 64 69 65 72 79 97 95 90 87 82 77 75 79 93 90 106 92 79 77 84
122 139 149 149 147 145 129 127 121 116 107 101 95 86 78 75 78 75 72 70 68 68 67 60 55 66 80 94 94 93 89 84 80 76 70 63 77 94 90 82 83 79 87
138 154 146 151 150 144 132 129 127 122 118 115 116 100 89 82 78 74 76 74 67 61 58 47 44 69 103 95 90 85 83 81 69 69 66 64 72 83 86 88 86 86 82
149 137 142 149 150 135 135 124 121 122 123 128 118 103 89 85 81 80 79 69 58 53 50 51 65 104 102 93 83 80 75 75 74 74 71 80 94 94 90 89 84 84 82
118 116 124 138 154 138 131 129 132 136 136 130 114 101 88 76 73 76 71 65 52 37 46 98 93 107 112 106 96 88 80 72 62 64 77 78 99 98 88 76 78 78 75
100 106 121 127 134 123 131 140 145 151 131 128 114 98 76 64 62 66 59 63 49 41 55 112 109 99 85 81 80 78 78 71 63 66 73 89 92 91 88 82 79 75 73
141 134 139 134 129 136 146 163 161 154 150 150 130 95 55 42 34 44 37 47 58 51 60 111 115 95 93 91 88 84 76 70 75 64 73 94 92 87 87 81 80 77 72
168 170 160 167 154 158 168 151 141 145 124 112 100 85 81 58 14 44 25 31 52 70 63 109 105 91 75 63 74 74 75 70 67 62 71 79 77 78 77 79 78 77 75
166 177 173 174 172 167 147 130 118 129 126 126 155 164 159 35 353 30 34 2 34 74 70 71 75 80 93 99 89 82 85 81 73 78 84 85 80 78 77 80 76 73 72
169 175 173 185 183 181 164 166 161 158 137 172 220 215 201 324 357 54 56 354 31 85 99 85 90 99 97 93 105 99 88 105 97 89 94 86 89 88 82 86 87 85 85
173 175 184 179 192 192 161 150 150 166 165 177 213 236 186 213 97 113 113 80 79 100 104 103 113 116 119 127 110 111 104 100 106 95 87 108 111 99 101 100 101 97 93
172 182 173 188 194 182 169 162 175 166 176 176 187 191 184 157 149 173 128 104 76 92 110 106 143 143 134 126 130 133 128 122 116 104 87 117 119 120 120 118 114 110 104
182 170 177 185 187 183 177 176 167 169 168 173 189 133 169 156 179 156 108 113 106 100 107 97 104 118 116 111 140 155 151 142 133 124 127 113 136 141 140 132 123 117 113
191 176 168 179 182 189 175 165 158 171 160 178 170 154 181 159 151 119 124 136 135 124 144 126 149 135 145 162 166 179 175 179 171 167 164 163 161 170 164 157 149 140 132
183 174 169 169 168 171 135 130 162 167 163 160 154 181 162 141 125 128 146 151 165 170 171 134 147 162 172 175 187 187 193 203 202 195 191 200 203 198 188 186 179 177 168
149 145 150 139 142 119 104 97 68 113 99 120 148 177 149 145 132 141 136 134 112 89 92 92 139 98 130 174 194 181 199 205 225 234 230 210 220 228 223 217 207 199 195
130 135 147 140 133 124 120 133 112 108 126 77 105 259 199 171 156 152 135 131 133 121 111 131 136 141 132 130 111 40 272 233 230 226 225 236 233 230 235 242 229 218 227
148 141 135 134 137 116 89 48 105 132 108 128 112 203 214 181 160 155 157 162 127 122 108 132 149 127 126 178 133 114 185 270 244 228 220 229 234 226 237 235 232 226 226
168 159 143 146 132 128 132 113 82 83 78 134 227 224 222 187 172 161 188 157 149 132 163 172 170 169 186 180 202 150 137 224 273 198 231 230 229 220 235 236 236 233 226
180 146 133 145 144 144 149 156 169 170 175 206 191 189 189 220 219 191 198 174 186 170 194 214 182 185 155 190 190 178 177 150 186 278 252 252 231 235 237 232 233 234 229
162 155 150 150 151 157 176 175 185 173 171 148 176 192 198 217 226 229 204 193 212 204 233 211 196 201 192 166 179 168 137 76 91 154 256 279 211 233 244 240 233 235 238
145 154 146 152 171 182 182 183 185 185 182 177 192 213 213 215 231 235 228 200 223 230 228 225 221 220 206 198 197 183 187 172 192 172 209 229 230 236 247 293 254 231 237